SL-16 R/B

Last updated on Mon Sep 21 2026 00:02:09 GMT+0000 (Coordinated Universal Time)

1 31793U 07029B 26263.36373094 -.00000285 00000+0 -12298-3 0 9996 2 31793 70.9742 123.1573 0002153 279.7567 253.4494 14.14862231992902
UTC large
Height (km)
Speed (km/s)
/
Latitude / Longitude
Inclination (degrees)
Orbital Period (minutes)
Azimuth
Elevation
Range (km)
Doppler Factor

Next 0 passes for location: London (51.5072 / 0.1276)

No passes found over London.
SL-16 R/B